Location: Cincinnati Observatory Center
(39.1389°N, 84.4225°W)
Time: 16:56:28
(UTC-04:00)

Daily predictions for brighter satellites

Satellite Brightness Start Highest point End
(mag) Time Altitude Azimuth Time Altitude Azimuth Time Altitude Azimuth
Cosmos 1605 Rocket 4.4 20:13:55 10° SSE 20:19:42 41° E 20:25:34 10° NNE
Lacrosse 5 rocket 3.6 20:22:09 10° N 20:23:20 11° NNE 20:24:30 10° NE
HJ-1C 3.6 20:25:31 10° SSE 20:28:48 49° ENE 20:32:07 10° N
SeaSat 1 2.6 20:24:17 10° SE 20:29:07 59° ENE 20:33:59 10° NNW
Cosmos 1937 Rocket 4.1 20:27:44 10° SSW 20:32:55 63° WNW 20:38:12 10° NNE
Cosmos 2123 Rocket 4.0 20:28:33 10° N 20:34:49 63° E 20:41:01 10° SSE
SL-27 R/B 2.5 20:33:33 10° NNW 20:37:10 89° E 20:40:47 10° SSE
RESURS DK-1 2.4 20:34:58 10° NNW 20:39:07 89° WSW 20:43:15 10° SSE
Cosmos 2344 3.8 20:32:55 10° SW 20:40:35 81° NW 20:49:08 10° NNE
CZ-2D R/B 3.8 20:39:28 10° SE 20:43:03 37° ENE 20:46:40 10° N
CZ-3B DEB 3.6 20:32:48 10° WSW 20:44:57 61° NW 20:50:28 10° NE
In-Cosmos 22 4.0 20:41:30 10° N 20:46:47 66° E 20:52:01 10° SSE
Meteor 1-29 4.4 20:44:22 10° NE 20:46:48 18° E 20:48:19 14° SE
Cosmos 1805 3.3 20:43:37 10° S 20:47:23 52° E 20:51:12 10° NNE
GPS 2-05 Rocket1 4.0 20:46:17 10° SW 20:49:24 29° SSE 20:51:23 18° ESE
Cosmos 1818 3.9 20:44:52 10° NNW 20:50:09 50° NE 20:54:41 14° SE
COSMOS 2487 3.8 20:49:01 10° N 20:51:56 23° ENE 20:53:16 19° E
ALOS 2.5 20:47:40 10° S 20:52:19 73° WSW 20:57:00 10° NNW
Resurs 1-3 3.6 20:50:23 10° SSE 20:54:43 64° ENE 20:59:04 10° N
Cosmos 1269 Rocket 4.5 20:51:52 10° N 20:56:52 41° ENE 21:00:49 15° SE
Meteor 1-4 Rocket 2.5 20:55:23 10° S 20:58:46 55° E 21:02:11 10° NNE
Timation 1 Rocket 4.3 20:53:41 10° SSW 20:59:38 72° ESE 21:05:39 10° NNE
FENGYUN 3A 4.1 20:56:28 10° S 21:01:49 66° WSW 21:07:12 10° NNW
Cosmos 1833 Rocket 3.2 20:56:53 10° N 21:02:10 40° ENE 21:05:39 19° ESE
Cosmos 468 4.5 20:58:12 10° NNW 21:03:26 69° ENE 21:08:39 10° SSE
Cosmos 1470 3.6 21:00:38 13° SE 21:03:29 29° E 21:06:55 10° NNE
Cosmos 1408 Rocket 4.1 21:00:48 10° N 21:05:00 39° ENE 21:07:46 19° SE
Cosmos 2278 Rocket 2.9 21:01:10 10° SW 21:06:44 57° WNW 21:12:20 10° NNE
Cosmos 1544 3.1 21:03:32 10° S 21:07:11 84° W 21:10:52 10° N
Cosmos 372 Rocket 3.9 21:05:59 10° S 21:10:58 57° ESE 21:16:01 10° NNE
Spot 1 4.4 21:07:43 13° SSE 21:11:42 58° ENE 21:16:31 10° N
Cosmos 1340 Rocket 3.8 21:08:26 10° NNE 21:11:52 26° ENE 21:12:10 26° E
CZ-4B DEB 3.5 21:12:04 31° ENE 21:12:04 31° ENE 21:14:51 10° N
Cosmos 1733 3.8 21:10:59 25° SE 21:12:29 34° E 21:16:01 10° NNE
Cosmos 2098 Rocket 4.3 21:05:22 10° S 21:12:30 76° E 21:20:07 10° N
Cosmos 1447 Rocket 4.4 21:06:47 10° N 21:12:55 70° E 21:19:02 10° SSE
Cosmos 1459 Rocket 4.3 21:07:30 10° SSE 21:13:21 42° E 21:19:07 10° NNE
ATLAS 5 CENTAUR R/B 1.8 21:13:24 10° SSW 21:17:54 52° ESE 21:22:45 10° NE
ISS -3.4 21:15:25 10° SSW 21:18:25 41° SE 21:18:25 41° SE
USA 215 3.4 21:12:43 10° NE 21:18:59 48° SE 21:25:14 10° SSW
Cosmos 2173 Rocket 4.2 21:13:16 10° SSE 21:19:05 46° E 21:25:01 10° NNE
Cosmos 158 Rocket 4.1 21:14:57 10° N 21:20:00 55° ENE 21:22:45 26° SE
Okean 3 Rocket 4.1 21:16:37 10° NNW 21:20:57 59° W 21:25:16 10° S
H-II Stage 2 3.5 21:20:22 10° SSW 21:20:30 10° S 21:20:30 10° S
H-2A R/B 3.9 21:18:07 10° S 21:21:51 45° W 21:25:39 10° NNW
Cosmos 2297 3.7 21:16:51 10° SSW 21:22:33 89° ESE 21:28:20 10° NNE
Cosmos 1867 3.6 21:19:26 10° SSW 21:24:53 86° WNW 21:30:23 10° NNE
Tiangong 1 2.9 21:23:02 10° W 21:25:16 20° SSW 21:25:54 18° SSW
Abrixas 2.2 21:24:09 10° WNW 21:26:59 88° WSW 21:26:59 88° WSW
Spot 2 Rocket 4.2 21:22:14 10° S 21:27:13 56° W 21:32:15 10° NNW
Cosmos 1758 4.2 21:28:17 10° SSW 21:32:08 49° W 21:36:02 10° N
Helios 1B rocket 2.4 21:29:07 10° NNE 21:33:16 85° W 21:37:22 10° SSW
Cosmos 1076 Rocket 3.8 21:30:00 10° NNW 21:34:12 65° W 21:38:07 12° S
Cosmos 2082 Rocket 2.1 21:32:26 10° NNW 21:38:09 87° ENE 21:41:10 29° SSE
Lacrosse 5 3.9 21:34:01 10° W 21:38:19 27° NNW 21:42:37 10° NNE
USA 186 3.2 21:39:54 26° WNW 21:39:54 26° WNW 21:41:19 10° NNW
Cosmos 1953 3.5 21:36:12 10° SSW 21:40:05 43° W 21:43:59 10° N
SWAS 4.5 21:38:12 10° SSW 21:42:28 80° WNW 21:46:49 10° NNE
SPOT 5 4.4 21:45:02 23° NE 21:45:02 23° NE 21:48:34 10° NNE
GP-B 3.4 21:40:28 10° S 21:44:52 68° W 21:49:18 10° N
Envisat 2.9 21:42:59 34° SSE 21:45:15 80° ENE 21:50:21 10° N
Cosmos 1939 Rocket 2.8 21:45:32 67° ESE 21:45:47 69° ENE 21:49:55 10° N
Helios 1A 3.5 21:43:23 22° S 21:45:58 58° W 21:50:06 10° NNW
Cosmos 1271 Rocket 2.9 21:45:02 12° SSW 21:48:47 75° W 21:52:49 10° N
Cosmos 1766 Rocket 4.0 21:45:35 10° NNW 21:50:01 63° W 21:52:35 24° SSW
Cosmos 2016 Rocket 3.9 21:47:02 24° SSE 21:50:48 60° E 21:56:52 10° NNE
Resurs 01 Rocket 3.8 21:47:12 10° SSW 21:50:51 25° W 21:54:31 10° NW
H-2A R/B 4.1 21:52:50 14° NE 21:52:50 14° NE 21:54:23 10° NNE
Cosmos 1725 Rocket 4.2 21:59:08 47° E 21:59:08 47° E 22:04:55 10° NNE
Cosmos-2242 3.7 21:55:02 10° SSW 21:59:11 53° W 22:03:22 10° N
ERS-1 Rocket 2.9 22:03:22 63° ENE 22:03:22 63° ENE 22:08:14 10° N
Lacrosse 5 rocket 2.2 21:59:38 10° NW 22:02:25 39° N 22:02:25 39° N
Cosmos 1674 4.1 22:02:19 10° NNW 22:05:48 36° W 22:06:52 29° SW
Cosmos 2100 Rocket 4.3 22:00:37 10° SSW 22:06:53 67° W 22:13:14 10° N
YAOGAN 6 4.4 22:10:52 26° N 22:10:52 26° N 22:12:38 10° N
SL-08 R/B 4.4 22:10:08 48° SSE 22:12:02 75° E 22:18:27 10° N
Tsikada Rocket 4.1 22:11:45 10° N 22:17:28 57° ENE 22:17:28 57° ENE
Cosmos 1743 Rocket 4.1 22:17:08 10° NNW 22:21:02 57° WNW 22:21:02 57° WNW
Cosmos 1802 Rocket 4.5 22:22:12 10° SSW 22:28:11 56° W 22:34:16 10° N
Cosmos 2251 Rocket 3.9 22:29:48 10° NNW 22:34:11 61° NNW 22:34:11 61° NNW
Cosmos 1833 Rocket 4.3 22:41:13 10° NW 22:45:52 27° WSW 22:47:24 24° SW
CZ-3B DEB 4.4 22:53:56 10° WNW 22:57:28 15° NNW 22:59:39 11° N
USA 215 3.9 22:55:43 10° NE 23:01:58 50° NW 23:08:12 10° WSW
ATLAS 5 CENTAUR R/B 4.1 22:59:13 10° W 23:02:56 22° NW 23:06:54 10° N
H-2A R/B 4.1 23:33:28 24° NNW 23:33:28 24° NNW 23:35:32 10° NNW
USA 267 4.1 23:35:30 45° NNW 23:35:30 45° NNW 23:39:55 10° NW
